Simultaneous Nadir Overpasses (SNOs) Predictions

Prediction of SNOs between NOAA-20 and NOAA-19 Satellite Orbit:

Table of predicted SNOs for the next 14.0 days since TLE Epoch: 8/26/2022
Index Date (NOAA-20) Time (NOAA-20) Lat,Lon (NOAA-20) SZA (NOAA-20 ) Date (NOAA-19) Time (NOAA-19) Lat,Lon (NOAA-19) SZA (NOAA-19 ) Distance(km) Time Diff (sec)
1 08/30/2022 10:09:51 -76.08,-169.21 112.29 08/30/2022 10:08:45 -76.08,-172.43 112.00 86.07 66
2 08/30/2022 11:00:45 76.45, -3.22 68.18 08/30/2022 10:59:31 76.45, -3.75 68.25 13.74 74
3 08/30/2022 11:51:31 -76.54, 163.78 111.71 08/30/2022 11:50:35 -76.51, 163.72 111.71 3.43 56
4 08/30/2022 12:42:17 76.54, -28.94 68.32 08/30/2022 12:41:29 76.52, -28.94 68.32 2.23 48
5 08/30/2022 13:33:01 -76.54, 138.40 111.68 08/30/2022 13:32:34 -76.54, 138.36 111.66 0.95 27
6 08/30/2022 14:23:47 76.55, -54.33 68.35 08/30/2022 14:23:28 76.56, -54.30 68.36 1.45 19
7 08/30/2022 15:14:31 -76.54, 113.01 111.65 08/30/2022 15:14:33 -76.57, 113.00 111.62 3.72 2
8 08/30/2022 16:05:17 76.55, -79.71 68.38 08/30/2022 16:05:28 76.55, -79.83 68.38 3.08 11
9 08/30/2022 16:56:02 -76.59, 87.46 111.57 08/30/2022 16:56:33 -76.57, 87.46 111.60 2.62 31
10 08/30/2022 17:46:48 76.60,-105.27 68.46 08/30/2022 17:47:27 76.58,-105.19 68.43 2.58 39
11 08/30/2022 18:37:32 -76.59, 62.07 111.54 08/30/2022 18:38:32 -76.60, 62.10 111.55 1.11 60
12 08/30/2022 19:28:18 76.60,-130.65 68.49 08/30/2022 19:29:26 76.62,-130.55 68.48 3.17 68



Historial Predications of SNOs between NOAA-20 and NOAA-19
